DW9125 Weather Reports


time (UTC)temp
C
wind
direction
speed
KPH
gust
KPH
rain 1hr
cm
rain 24hr
cm
rain mn
cm
humidity
%
barometer
mb
20260504081524 8 360 0.0 3.2 0.00 0.00 0.00 80 1005.2
20260504050007 8 360 0.0 1.6 0.00 0.00 0.00 66 1005.7
20260504044506 8 360 0.0 3.2 0.00 0.00 0.00 67 1005.8
20260504043003 7 360 0.0 1.6 0.00 0.00 0.00 65 1006.0
20260504041600 7 360 0.0 1.6 0.00 0.00 0.00 64 1006.0
20260504041500 7 360 0.0 1.6 0.00 0.00 0.00 64 1006.0
20260504040105 7 360 0.0 1.6 0.00 0.00 0.00 65 1006.0
20260504034616 7 360 0.0 1.6 0.00 0.00 0.00 64 1006.0
20260504033103 7 360 0.0 1.6 0.00 0.00 0.00 64 1006.1
20260504031603 7 360 0.0 0.0 0.00 0.00 0.00 64 1006.2
20260504030056 7 360 0.0 0.0 0.00 0.00 0.00 59 1006.2
20260504024557 6 360 0.0 0.0 0.00 0.00 0.00 59 1006.3
20260504023054 6 360 0.0 0.0 0.00 0.00 0.00 58 1006.4
20260504021556 6 360 0.0 0.0 0.00 0.00 0.00 58 1006.5
20260504014554 6 360 0.0 0.0 0.00 0.00 0.00 59 1006.6
20260504013051 6 360 0.0 0.0 0.00 0.00 0.00 58 1006.6
20260504011549 7 360 0.0 0.0 0.00 0.00 0.00 58 1006.5
20260504010048 7 360 0.0 0.0 0.00 0.00 0.00 58 1006.4
20260504004547 8 360 0.0 0.0 0.00 0.00 0.00 50 1006.3
20260504003047 9 360 0.0 0.0 0.00 0.00 0.00 49 1006.2
20260504001545 9 360 0.0 0.0 0.00 0.00 0.00 47 1006.2
20260504000048 10 360 0.0 0.0 0.00 0.00 0.00 46 1006.2
20260503234543 10 360 0.0 0.0 0.00 0.00 0.00 44 1006.1
20260503233042 11 360 0.0 0.0 0.00 0.00 0.00 44 1006.1
20260503231543 11 360 0.0 0.0 0.00 0.00 0.00 42 1006.0
20260503230049 11 360 0.0 0.0 0.00 0.00 0.00 40 1006.0
20260503224542 11 360 0.0 0.0 0.00 0.00 0.00 39 1006.0
20260503223041 12 360 0.0 0.0 0.00 0.00 0.00 39 1006.0
20260503221539 11 360 0.0 1.6 0.00 0.00 0.00 40 1006.0
20260503220039 12 360 0.0 1.6 0.00 0.00 0.00 42 1006.0
20260503214541 11 360 0.0 1.6 0.00 0.00 0.00 43 1006.2
20260503213036 11 360 0.0 0.0 0.00 0.00 0.00 43 1006.2
20260503211543 11 360 0.0 0.0 0.00 0.00 0.00 44 1006.1
20260503210034 11 360 0.0 0.0 0.00 0.00 0.00 44 1006.1
20260503204534 11 360 0.0 1.6 0.00 0.00 0.00 43 1006.2
20260503203028 11 360 0.0 1.6 0.00 0.00 0.00 46 1006.3
20260503201527 10 360 0.0 1.6 0.00 0.00 0.00 46 1006.4
20260503200034 11 360 0.0 1.6 0.00 0.00 0.00 47 1006.6
20260503194523 10 360 0.0 0.0 0.00 0.00 0.00 47 1006.7
20260503193028 10 360 0.0 1.6 0.00 0.00 0.00 48 1006.9
20260503191520 10 360 0.0 0.0 0.00 0.00 0.00 47 1007.1
20260503190017 10 360 0.0 0.0 0.00 0.00 0.00 51 1007.1
20260503184516 10 360 0.0 0.0 0.00 0.00 0.00 51 1007.2
20260503183015 9 360 0.0 0.0 0.00 0.00 0.00 52 1007.3
20260503181514 10 360 0.0 0.0 0.00 0.00 0.00 51 1007.4
20260503180011 9 360 0.0 0.0 0.00 0.00 0.00 54 1007.6
20260503174515 8 360 0.0 0.0 0.00 0.00 0.00 56 1007.7
20260503173013 9 360 0.0 0.0 0.00 0.00 0.00 53 1007.8
20260503171508 9 360 0.0 0.0 0.00 0.00 0.00 53 1007.9
20260503150106 8 360 0.0 1.6 0.00 0.00 0.00 61 1009.2
20260503100119 4 360 0.0 0.0 0.00 0.00 0.00 88 1009.6